User: anonymous
Location: Langangen
(59.1000°N, 9.8000°E)
Time: 19:52:42
(UTC+02:00)
Language:

Iridium 60 - Orbit

View from above orbital plane
View from above orbital plane
View from above satellite
View from above satellite

Ground track
Ground track

The orbit data is extracted from the following two-line orbital elements,

1 25276U 98019E   14273.32999349  .00000517  00000-0  17745-3 0  9927
2 25276 086.3990 341.2078 0002332 109.0558 251.0890 14.34225103864044
Epoch (UTC): 30 September 2014 07:55:11
Eccentricity: 0.0002332
inclination: 86.3990°
perigee height: 776 km
apogee height: 779 km
right ascension of ascending node: 341.2078°
argument of perigee: 109.0558°
revolutions per day: 14.34225103
mean anomaly at epoch: 251.0890°
orbit number at epoch: 86404

The dashed part of the orbit path shows where the satellite is in the earth's shadow,  

DLR